Syracuse, NY

2:52 AM EST on February 12, 2016 (GMT -0500)
Syracuse Hancock International

Weather History for KSYR - January, 2014

Change the Weather History Date:

Monday, January 6, 2014

  Actual Average Record
Temperature  
Mean Temperature 29 °F 24 °F  
Max Temperature 50 °F 32 °F 62 °F (2007)
Min Temperature 7 °F 16 °F -12 °F (1912)
Degree Days  
Heating Degree Days 36 41  
Month to date heating degree days 291 244  
Since 1 July heating degree days 2766 2697  
Cooling Degree Days 0 0  
Month to date cooling degree days 0 0  
Year to date cooling degree days 0 0  
Moisture  
Dew Point 24 °F    
Average Humidity 70    
Maximum Humidity 89    
Minimum Humidity 50    
Precipitation  
Precipitation 0.17 in 0.09 in 1.20 in (1943)
Month to date precipitation 0.87 0.54  
Year to date precipitation 0.87 0.54  
Snow  
Snow 0.10 in 1.10 in 6.30 in (1986)
Month to date snowfall 8.6 6.2  
Since 1 July snowfall 51.9 48.8  
Snow Depth 2.00 in    
Sea Level Pressure  
Sea Level Pressure 29.51 in    
Wind  
Wind Speed 21 mph (WSW)    
Max Wind Speed 46 mph    
Max Gust Speed 52 mph    
Visibility 8 miles    
Events Rain , Snow    
T = Trace of Precipitation, MM = Missing Value Source: NWS Daily Summary

Daily Weather History Graph

Daily Weather History Graph

Search for Another Location

Airport or City:

Trip Planner

Search our weather history database for the weather conditions in past years. The results will help you decide how hot, cold, wet, or windy it might be!

Date:

Astronomy

Jan. 06, 2014 Rise Set
Actual Time 7:36 AM EST 4:44 PM EST
Civil Twilight 7:03 AM EST 5:16 PM EST
Nautical Twilight 6:28 AM EST 5:52 PM EST
Astronomical Twilight 5:53 AM EST 6:26 PM EST
Moon 10:40 AM EST (1/6) 11:26 PM EST (1/6)
Length of Visible Light 10h 13m
Length of Day
9h 08m
Waxing Crescent, 34% of the Moon is Illuminated
Jan 6
Waxing Crescent
Jan 7
First Quarter
Jan 15
Full
Jan 24
Last Quarter
Jan 30
New

Hourly Weather History & Observations

Time (EST) Temp. Windchill Dew Point Humidity Pressure Visibility Wind Dir Wind Speed Gust Speed Precip Events Conditions
12:54 AM 46.9 °F - 43.0 °F 86% 29.46 in 10.0 mi South 11.5 mph - 0.00 in   Overcast
1:49 AM 48.2 °F - 44.6 °F 87% 29.43 in 10.0 mi SSE 10.4 mph - N/A   Overcast
1:54 AM 48.0 °F - 43.0 °F 83% 29.42 in 10.0 mi SSE 10.4 mph - N/A   Overcast
2:54 AM 46.9 °F - 43.0 °F 86% 29.34 in 10.0 mi SE 10.4 mph - 0.00 in Rain Light Rain
3:50 AM 46.4 °F 41.9 °F 42.8 °F 87% 29.31 in 10.0 mi SSW 9.2 mph - 0.00 in Rain Light Rain
3:54 AM 48.9 °F - 45.0 °F 86% 29.31 in 10.0 mi SSW 9.2 mph - 0.00 in Rain Light Rain
4:17 AM 50.0 °F - 44.6 °F 82% 29.28 in 10.0 mi SSW 9.2 mph - 0.01 in Rain Light Rain
4:54 AM 50.0 °F - 45.0 °F 83% 29.25 in 8.0 mi South 15.0 mph - 0.04 in Rain Light Rain
5:54 AM 48.9 °F - 44.1 °F 83% 29.27 in 7.0 mi SW 21.9 mph - 0.08 in Rain Light Rain
6:54 AM 48.0 °F - 39.9 °F 74% 29.29 in 10.0 mi SW 15.0 mph - 0.02 in Rain Light Rain
7:54 AM 44.1 °F 35.7 °F 36.0 °F 73% 29.37 in 9.0 mi WSW 20.7 mph - 0.01 in Rain Light Rain
8:06 AM 37.4 °F 25.0 °F 33.8 °F 87% 29.40 in 8.0 mi West 29.9 mph 51.8 mph 0.00 in Rain Light Rain
8:13 AM 35.6 °F 22.5 °F 32.0 °F 87% 29.40 in 8.0 mi West 29.9 mph 38.0 mph 0.00 in Snow Light Snow
8:14 AM 35.6 °F 22.3 °F 32.0 °F 87% 29.40 in 7.0 mi West 31.1 mph 36.8 mph 0.00 in Snow Light Snow
8:23 AM 35.6 °F 23.4 °F 30.2 °F 81% 29.44 in 5.0 mi WSW 25.3 mph 38.0 mph 0.00 in Snow Light Snow
8:36 AM 35.6 °F 24.2 °F 33.8 °F 93% 29.46 in 7.0 mi West 21.9 mph 35.7 mph 0.01 in Snow Light Snow
8:54 AM 35.1 °F 24.5 °F 32.0 °F 89% 29.46 in 3.0 mi WSW 18.4 mph - 0.01 in Snow Light Snow
8:59 AM 33.8 °F 22.8 °F 32.0 °F 93% 29.45 in 2.5 mi West 18.4 mph 25.3 mph 0.01 in Snow Light Snow
9:02 AM 33.8 °F 22.8 °F 32.0 °F 93% 29.47 in 3.0 mi WSW 18.4 mph 25.3 mph 0.01 in Snow Light Snow
9:18 AM 35.6 °F 24.0 °F 28.4 °F 75% 29.50 in 9.0 mi WSW 23.0 mph 33.4 mph 0.01 in   Overcast
9:54 AM 35.1 °F 21.8 °F 25.0 °F 67% 29.51 in 10.0 mi West 29.9 mph 35.7 mph 0.01 in   Overcast
10:54 AM 33.1 °F 18.2 °F 21.9 °F 64% 29.54 in 10.0 mi West 34.5 mph 43.7 mph N/A   Overcast
11:54 AM 30.0 °F 18.3 °F 19.9 °F 66% 29.56 in 9.0 mi West 17.3 mph 25.3 mph 0.00 in Snow Light Snow
12:54 PM 28.9 °F 17.3 °F 19.9 °F 69% 29.55 in 2.5 mi West 16.1 mph - 0.00 in Snow Light Snow
1:48 PM 28.4 °F 15.8 °F 19.4 °F 69% 29.55 in 5.0 mi WSW 18.4 mph 28.8 mph 0.00 in Snow Light Snow
1:54 PM 28.9 °F 16.9 °F 19.9 °F 69% 29.55 in 9.0 mi WSW 17.3 mph - 0.00 in Snow Light Snow
2:54 PM 28.0 °F 14.3 °F 16.0 °F 61% 29.59 in 9.0 mi West 21.9 mph 31.1 mph 0.00 in Snow Light Snow
3:54 PM 26.1 °F 11.3 °F 14.0 °F 60% 29.60 in 9.0 mi West 23.0 mph 34.5 mph 0.00 in Snow Light Snow
4:54 PM 24.1 °F 10.6 °F 12.0 °F 60% 29.60 in 10.0 mi West 17.3 mph 28.8 mph 0.00 in   Overcast
5:54 PM 21.9 °F 3.9 °F 10.9 °F 63% 29.62 in 9.0 mi West 29.9 mph 34.5 mph 0.00 in Snow Light Snow
6:11 PM 21.2 °F 3.5 °F 14.0 °F 74% 29.63 in 1.8 mi West 27.6 mph 38.0 mph 0.00 in Snow Light Snow
6:22 PM 21.2 °F 5.2 °F 15.8 °F 80% 29.65 in 3.0 mi West 21.9 mph 36.8 mph 0.00 in Snow Light Snow
6:44 PM 19.4 °F 0.5 °F 5.0 °F 54% 29.66 in 9.0 mi West 29.9 mph 38.0 mph 0.00 in Snow Light Snow
6:54 PM 19.0 °F 2.4 °F 7.0 °F 59% 29.67 in 9.0 mi West 21.9 mph 29.9 mph 0.00 in   Scattered Clouds
7:54 PM 15.1 °F -4.7 °F -0.9 °F 49% 29.71 in 10.0 mi West 27.6 mph 39.1 mph N/A   Overcast
8:54 PM 10.9 °F -11.9 °F -5.1 °F 49% 29.75 in 10.0 mi WSW 33.4 mph 38.0 mph N/A   Mostly Cloudy
9:54 PM 9.0 °F -12.2 °F -7.1 °F 48% 29.76 in 10.0 mi West 25.3 mph 38.0 mph N/A   Partly Cloudy
10:54 PM 8.1 °F -13.8 °F -7.1 °F 50% 29.77 in 10.0 mi West 26.5 mph 38.0 mph N/A   Mostly Cloudy
11:54 PM 7.0 °F -16.0 °F -4.0 °F 61% 29.77 in 10.0 mi WSW 28.8 mph 36.8 mph N/A   Overcast